�������l�o���
Date,Time,MP-1(��Sv/h),MP-2(��Sv/h),MP-3(��Sv/h),MP-4(��Sv/h),MP-5(��Sv/h),MP-6(��Sv/h),MP-7(��Sv/h),MP-8(��Sv/h),����,����(m/s),���J
2020/01/23,00:00,0.705,1.008,0.665,1.257,0.887,0.402,0.706,0.670,���k��,1.9,��
2020/01/23,00:10,0.704,1.007,0.663,1.258,0.888,0.400,0.706,0.670,���k��,2.2,��
2020/01/23,00:20,0.704,1.009,0.663,1.259,0.889,0.401,0.706,0.671,���k��,3.5,��
2020/01/23,00:30,0.704,1.009,0.662,1.259,0.888,0.403,0.705,0.669,�k��,3.9,��
2020/01/23,00:40,0.704,1.008,0.663,1.258,0.887,0.403,0.706,0.670,�k�k��,4.2,��
2020/01/23,00:50,0.703,1.007,0.664,1.259,0.886,0.401,0.706,0.670,�k�k��,3.8,��
2020/01/23,01:00,0.705,1.007,0.664,1.258,0.886,0.400,0.706,0.670,�k,5.0,��
2020/01/23,01:10,0.704,1.009,0.661,1.260,0.887,0.401,0.704,0.673,�k�k��,4.2,��
2020/01/23,01:20,0.704,1.009,0.662,1.258,0.885,0.403,0.705,0.670,�k�k��,4.1,��
2020/01/23,01:30,0.703,1.007,0.663,1.258,0.885,0.401,0.705,0.671,�k�k��,3.3,��
2020/01/23,01:40,0.704,1.007,0.662,1.258,0.884,0.402,0.704,0.670,�k�k��,3.9,��
2020/01/23,01:50,0.705,1.009,0.663,1.258,0.886,0.401,0.705,0.671,�k�k��,3.1,��
2020/01/23,02:00,0.704,1.009,0.664,1.258,0.889,0.403,0.706,0.671,�k�k��,2.2,��
2020/01/23,02:10,0.705,1.006,0.663,1.258,0.887,0.400,0.706,0.670,�k�k��,2.4,��
2020/01/23,02:20,0.704,1.009,0.664,1.258,0.887,0.401,0.706,0.670,�k��,2.3,��
2020/01/23,02:30,0.704,1.007,0.663,1.256,0.887,0.400,0.705,0.671,�k�k��,1.8,��
2020/01/23,02:40,0.703,1.009,0.664,1.257,0.887,0.402,0.707,0.670,�k��,2.2,��
2020/01/23,02:50,0.706,1.008,0.664,1.259,0.886,0.402,0.705,0.670,��,4.6,��
2020/01/23,03:00,0.704,1.005,0.663,1.257,0.887,0.402,0.707,0.670,��,8.8,��
2020/01/23,03:10,0.704,1.008,0.662,1.257,0.888,0.401,0.706,0.670,��,8.2,��
2020/01/23,03:20,0.706,1.007,0.663,1.258,0.889,0.402,0.706,0.670,��,8.6,��
2020/01/23,03:30,0.705,1.008,0.663,1.260,0.884,0.403,0.707,0.669,��,8.3,��
2020/01/23,03:40,0.706,1.008,0.661,1.259,0.886,0.403,0.708,0.670,��,5.5,��
2020/01/23,03:50,0.707,1.007,0.663,1.261,0.885,0.402,0.706,0.670,��,5.8,��
2020/01/23,04:00,0.706,1.009,0.666,1.258,0.888,0.403,0.708,0.671,��,2.7,��
2020/01/23,04:10,0.707,1.008,0.664,1.258,0.886,0.403,0.707,0.671,���k��,1.6,��
2020/01/23,04:20,0.706,1.006,0.663,1.258,0.887,0.402,0.706,0.671,���k��,7.2,��
2020/01/23,04:30,0.706,1.010,0.663,1.259,0.886,0.400,0.706,0.670,��,4.9,��
2020/01/23,04:40,0.707,1.009,0.663,1.260,0.886,0.402,0.707,0.672,�쐼,1.6,��
2020/01/23,04:50,0.706,1.008,0.665,1.260,0.886,0.402,0.708,0.672,��쓌,3.9,��
2020/01/23,05:00,0.707,1.009,0.665,1.258,0.888,0.401,0.706,0.671,�쓌,3.5,��
2020/01/23,05:10,0.704,1.007,0.664,1.258,0.886,0.402,0.707,0.671,�쓌,1.6,��
2020/01/23,05:20,0.706,1.007,0.664,1.259,0.885,0.404,0.706,0.671,��쓌,1.4,��
2020/01/23,05:30,0.705,1.008,0.663,1.260,0.887,0.401,0.707,0.672,��쓌,4.2,��
2020/01/23,05:40,0.706,1.008,0.665,1.259,0.885,0.403,0.710,0.671,��쓌,4.0,��
2020/01/23,05:50,0.705,1.007,0.665,1.261,0.886,0.402,0.706,0.671,�쓌,4.3,��
2020/01/23,06:00,0.705,1.008,0.663,1.259,0.887,0.403,0.706,0.672,�쓌,2.9,��
2020/01/23,06:10,0.707,1.009,0.663,1.259,0.888,0.403,0.705,0.671,��쓌,3.5,��
2020/01/23,06:20,0.707,1.007,0.665,1.259,0.885,0.403,0.706,0.672,��쓌,4.1,��
2020/01/23,06:30,0.708,1.006,0.664,1.259,0.886,0.402,0.707,0.672,��쐼,1.7,��
2020/01/23,06:40,0.706,1.009,0.664,1.257,0.887,0.403,0.704,0.669,��,2.7,��
2020/01/23,06:50,0.706,1.007,0.666,1.258,0.886,0.402,0.706,0.671,��,4.2,��
2020/01/23,07:00,0.708,1.008,0.666,1.258,0.886,0.404,0.705,0.672,��쓌,4.7,��
2020/01/23,07:10,0.706,1.008,0.664,1.258,0.887,0.402,0.705,0.671,��쓌,4.6,��
2020/01/23,07:20,0.706,1.007,0.663,1.259,0.888,0.403,0.706,0.672,��쓌,4.3,��
2020/01/23,07:30,0.708,1.008,0.663,1.258,0.889,0.403,0.707,0.672,��,4.0,��
2020/01/23,07:40,0.707,1.008,0.665,1.259,0.888,0.402,0.705,0.671,��쓌,4.2,��
2020/01/23,07:50,0.706,1.005,0.663,1.259,0.886,0.402,0.706,0.671,��쓌,4.3,��
2020/01/23,08:00,0.707,1.006,0.663,1.257,0.886,0.402,0.707,0.669,��,3.8,��
2020/01/23,08:10,0.705,1.009,0.663,1.258,0.886,0.402,0.706,0.671,��쓌,3.2,��
2020/01/23,08:20,0.705,1.007,0.662,1.259,0.885,0.401,0.707,0.672,��,4.2,��
2020/01/23,08:30,0.707,1.007,0.662,1.257,0.887,0.400,0.707,0.673,��,3.8,��
2020/01/23,08:40,0.705,1.008,0.662,1.260,0.885,0.402,0.706,0.671,��,3.5,��
2020/01/23,08:50,0.705,1.005,0.663,1.258,0.884,0.398,0.707,0.673,��,4.0,��
2020/01/23,09:00,0.707,1.007,0.662,1.258,0.888,0.393,0.706,0.672,��,4.1,��
2020/01/23,09:10,0.707,1.004,0.660,1.258,0.886,-,0.706,0.671,��,3.4,��
2020/01/23,09:20,0.705,1.003,0.663,1.259,0.889,-,0.706,0.670,��,3.9,��
2020/01/23,09:30,0.707,1.005,0.661,1.259,0.887,-,0.708,0.672,��,3.9,��
2020/01/23,09:40,0.707,1.006,0.661,1.257,0.886,-,0.706,0.672,��,4.6,��
2020/01/23,09:50,0.707,1.005,0.659,1.259,0.888,-,0.705,0.671,��쓌,5.2,��
2020/01/23,10:00,0.709,1.003,0.658,1.260,0.887,-,0.706,0.671,��,3.0,��
2020/01/23,10:10,0.708,1.007,0.660,1.260,0.887,-,0.705,0.672,��,4.2,��
2020/01/23,10:20,0.707,1.005,0.663,1.261,0.887,-,0.706,0.671,��,3.2,��
2020/01/23,10:30,0.711,1.006,0.666,1.260,0.887,-,0.706,0.674,��쓌,4.2,��
2020/01/23,10:40,0.708,1.008,0.664,1.259,0.887,-,0.706,0.671,��쓌,5.2,��
2020/01/23,10:50,0.709,1.008,0.664,1.258,0.888,-,0.706,0.672,��쓌,6.0,��
2020/01/23,11:00,0.709,1.005,0.663,1.258,0.888,-,0.706,0.673,��쓌,5.0,��
2020/01/23,11:10,0.709,1.005,0.665,1.258,0.891,0.400,0.700,0.671,��쓌,5.3,��
2020/01/23,11:20,0.711,1.002,0.664,1.258,0.886,0.400,0.702,0.672,��쓌,5.0,��
2020/01/23,11:30,0.707,1.002,0.666,1.261,0.884,0.400,0.701,0.673,��쓌,6.0,��
2020/01/23,11:40,0.707,1.003,0.664,1.264,0.889,0.401,-,0.672,��,5.2,��
2020/01/23,11:50,0.708,1.004,0.665,1.262,0.887,0.401,-,0.670,��,5.0,��
2020/01/23,12:00,0.709,1.005,0.665,1.262,0.885,0.403,-,0.672,��,5.2,��
2020/01/23,12:10,0.709,1.009,0.664,1.260,0.890,0.404,0.700,0.672,��쓌,5.0,��
2020/01/23,12:20,0.710,1.008,0.665,1.261,0.887,0.402,0.703,0.672,��,4.9,��
2020/01/23,12:30,0.709,1.010,0.666,1.261,0.887,0.403,0.703,0.673,��,4.3,�L
2020/01/23,12:40,0.707,1.011,0.665,1.262,0.886,0.403,0.702,0.672,��쓌,3.5,�L
2020/01/23,12:50,0.710,1.013,0.666,1.261,0.889,0.405,0.706,0.672,��,2.4,�L
2020/01/23,13:00,0.709,1.011,0.665,1.263,0.892,0.405,0.703,0.673,��,2.2,�L
2020/01/23,13:10,0.711,1.012,0.664,1.261,0.892,0.401,0.701,0.671,��,1.7,�L
2020/01/23,13:20,0.709,1.011,0.667,1.261,0.893,0.403,0.701,0.673,��,1.3,�L
2020/01/23,13:30,0.709,1.010,0.667,1.261,0.890,0.404,0.703,0.674,-,CALM,�L
2020/01/23,13:40,0.709,1.012,0.668,1.263,0.891,0.405,0.702,0.675,�k�k��,3.2,�L
2020/01/23,13:50,0.708,1.007,0.668,1.262,0.890,0.405,0.701,0.673,�k,5.2,�L
2020/01/23,14:00,0.710,1.009,0.666,1.260,0.889,0.407,0.700,0.673,�k,6.0,�L
2020/01/23,14:10,0.708,1.007,0.665,1.259,0.888,0.405,0.701,0.671,�k,5.5,�L
2020/01/23,14:20,0.707,1.004,0.667,1.260,0.887,0.408,0.700,0.672,�k,5.2,�L
2020/01/23,14:30,0.706,1.004,0.664,1.259,0.884,0.405,0.698,0.672,�k,5.8,�L
2020/01/23,14:40,0.705,1.001,0.666,1.258,0.885,0.403,0.698,0.671,�k,4.6,�L
2020/01/23,14:50,0.705,1.001,0.662,1.258,0.884,0.406,0.695,0.670,�k,5.0,�L
2020/01/23,15:00,0.706,0.997,0.662,1.257,0.882,0.409,0.695,0.670,�k,4.7,�L
2020/01/23,15:10,0.704,0.997,0.662,1.256,0.881,0.408,0.693,0.670,�k,4.9,�L
2020/01/23,15:20,0.704,0.995,0.663,1.257,0.882,0.407,0.694,0.670,�k�k��,4.9,�L
2020/01/23,15:30,0.702,0.994,0.660,1.254,0.878,0.404,0.694,0.668,�k,5.5,�L
2020/01/23,15:40,0.701,0.994,0.659,1.252,0.878,0.405,0.693,0.668,�k�k��,5.5,�L
2020/01/23,15:50,0.701,0.992,0.660,1.249,0.877,0.405,0.693,0.669,�k�k��,5.2,�L
2020/01/23,16:00,0.702,0.991,0.660,1.251,0.875,0.405,0.695,0.670,�k�k��,4.5,�L
2020/01/23,16:10,0.701,0.990,0.660,1.248,0.873,0.405,0.694,0.667,�k�k��,5.2,�L
2020/01/23,16:20,0.702,0.990,0.660,1.247,0.875,0.405,0.699,0.667,�k�k��,5.5,�L
2020/01/23,16:30,0.698,0.988,0.659,1.246,0.873,0.403,0.700,0.667,�k�k��,5.8,�L
2020/01/23,16:40,0.699,0.987,0.657,1.245,0.872,0.404,0.698,0.668,�k��,5.5,�L
2020/01/23,16:50,0.697,0.987,0.657,1.245,0.870,0.402,0.699,0.665,�k��,4.6,�L
2020/01/23,17:00,0.698,0.985,0.657,1.244,0.871,0.403,0.698,0.668,�k��,6.1,�L
2020/01/23,17:10,0.698,0.986,0.656,1.244,0.869,0.401,0.697,0.665,�k��,6.0,�L
2020/01/23,17:20,0.696,0.987,0.656,1.244,0.870,0.401,0.699,0.666,�k��,5.8,�L
2020/01/23,17:30,0.697,0.987,0.657,1.243,0.870,0.403,0.698,0.666,�k�k��,6.1,�L
2020/01/23,17:40,0.695,0.986,0.657,1.244,0.867,0.402,0.699,0.666,�k��,6.3,�L
2020/01/23,17:50,0.697,0.987,0.656,1.243,0.869,0.401,0.698,0.666,�k��,6.0,�L
2020/01/23,18:00,0.696,0.983,0.656,1.243,0.870,0.403,0.699,0.666,�k��,6.3,�L
2020/01/23,18:10,0.694,0.983,0.657,1.242,0.867,0.400,0.699,0.665,�k��,6.0,�L
2020/01/23,18:20,0.694,0.984,0.654,1.239,0.868,0.402,0.699,0.665,�k�k��,5.8,�L
2020/01/23,18:30,0.695,0.985,0.656,1.243,0.868,0.401,0.697,0.667,�k��,6.0,�L
2020/01/23,18:40,0.694,0.983,0.654,1.241,0.867,0.401,0.697,0.664,�k�k��,5.5,�L
2020/01/23,18:50,0.694,0.983,0.653,1.243,0.868,0.402,0.698,0.665,�k��,5.6,�L
2020/01/23,19:00,0.695,0.983,0.656,1.240,0.865,0.401,0.698,0.664,�k��,5.5,�L
2020/01/23,19:10,0.693,0.983,0.654,1.237,0.866,0.399,0.696,0.665,�k��,6.0,�L
2020/01/23,19:20,0.692,0.985,0.652,1.237,0.866,0.400,0.699,0.664,�k��,5.5,�L
2020/01/23,19:30,0.692,0.983,0.653,1.238,0.866,0.400,0.696,0.663,�k��,4.6,�L
2020/01/23,19:40,0.695,0.985,0.653,1.242,0.865,0.401,0.698,0.665,�k��,5.0,�L
2020/01/23,19:50,0.693,0.983,0.653,1.240,0.866,0.403,0.698,0.664,�k��,5.2,�L
2020/01/23,20:00,0.696,0.982,0.653,1.241,0.867,0.401,0.698,0.664,�k��,5.5,�L
2020/01/23,20:10,0.692,0.981,0.653,1.240,0.867,0.402,0.698,0.663,�k�k��,5.5,�L
2020/01/23,20:20,0.695,0.983,0.654,1.242,0.866,0.402,0.698,0.663,�k��,4.9,�L
2020/01/23,20:30,0.693,0.981,0.653,1.240,0.865,0.400,0.696,0.665,�k�k��,4.5,�L
2020/01/23,20:40,0.692,0.981,0.653,1.239,0.865,0.401,0.697,0.664,�k�k��,5.2,��
2020/01/23,20:50,0.693,0.984,0.653,1.236,0.865,0.400,0.695,0.665,�k�k��,4.9,��
2020/01/23,21:00,0.694,0.983,0.653,1.240,0.864,0.398,0.697,0.664,�k�k��,4.6,��
2020/01/23,21:10,0.694,0.982,0.653,1.239,0.867,0.399,0.697,0.665,�k�k��,5.0,��
2020/01/23,21:20,0.693,0.983,0.653,1.239,0.865,0.397,0.698,0.664,�k�k��,5.3,��
2020/01/23,21:30,0.693,0.983,0.652,1.239,0.864,0.399,0.696,0.665,�k�k��,5.6,��
2020/01/23,21:40,0.694,0.985,0.652,1.239,0.865,0.399,0.696,0.663,�k�k��,6.0,��
2020/01/23,21:50,0.693,0.981,0.652,1.236,0.865,0.395,0.697,0.665,�k�k��,5.8,��
2020/01/23,22:00,0.693,0.983,0.651,1.239,0.865,0.397,0.697,0.664,�k�k��,6.6,��
2020/01/23,22:10,0.691,0.984,0.652,1.239,0.865,0.396,0.696,0.664,�k�k��,6.1,��
2020/01/23,22:20,0.696,0.985,0.652,1.237,0.865,0.397,0.697,0.663,�k�k��,6.0,��
2020/01/23,22:30,0.694,0.981,0.652,1.238,0.864,0.399,0.697,0.663,�k,5.0,��
2020/01/23,22:40,0.694,0.983,0.652,1.241,0.866,0.396,0.696,0.664,�k�k��,6.0,��
2020/01/23,22:50,0.694,0.981,0.653,1.240,0.866,0.397,0.696,0.664,�k�k��,5.5,��
2020/01/23,23:00,0.693,0.983,0.652,1.238,0.863,0.396,0.694,0.665,�k�k��,5.8,��
2020/01/23,23:10,0.693,0.982,0.654,1.239,0.867,0.398,0.696,0.664,�k�k��,5.6,��
2020/01/23,23:20,0.694,0.984,0.653,1.239,0.864,0.397,0.696,0.665,�k�k��,5.3,��
2020/01/23,23:30,0.693,0.981,0.653,1.239,0.867,0.397,0.698,0.663,�k�k��,5.5,��
2020/01/23,23:40,0.692,0.982,0.654,1.239,0.865,0.397,0.697,0.665,�k�k��,5.5,��
2020/01/23,23:50,0.693,0.984,0.651,1.240,0.864,0.397,0.697,0.663,�k�k��,5.8,��
